Regional Weather Roundup
Issued by NWS

Home | Current Version | Previous Version | Graphics & Text | Print | Product List | Glossary On
Versions: 1 2 3 4 5 6 7 8 9 10 11 12 13 14 15 16 17 18 19 20 21 22 23 24 25 26 27 28 29 30 31 32 33 34 35 36 37 38 39 40 41 42 43 44 45 46 47 48 49 50
000
ASUS43 KIND 292209
RWRIN

WEATHER ROUNDUP FOR INDIANA
NATIONAL WEATHER SERVICE INDIANAPOLIS IN
600 PM EDT SUN MAR 29 2015

NOTE: "FAIR" INDICATES FEW OR NO CLOUDS BELOW 12,000 FEET WITH NO
SIGNIFICANT WEATHER AND/OR OBSTRUCTIONS TO VISIBILITY.

* - STATION DOES NOT REPORT WEATHER SUCH AS PRECIPITATION OR FOG.

+ - STATION NOT QUALITY CONTROLLED BY THE NATIONAL WEATHER SERVICE.
    USE DATA WITH CAUTION...ESPECIALLY DEWPOINT AND RELATIVE
    HUMIDITY OBSERVATIONS.

INZ001>003-010>013-019-020-292300-
NORTHWEST INDIANA

CITY           SKY/WX    TMP DP  RH WIND       PRES   REMARKS
GARY /AIRPORT/ PTSUNNY   45  27  49 SW14G26   29.83F
KNOX *+          N/A     37  19  48 SW15G24   29.86S
LA PORTE +     CLOUDY    40  31  68 S18       29.84F
MICHIGAN CITY+ CLOUDY    39  27  60 SW17G24   29.84F
MONTICELLO +   CLOUDY    41  32  70 SW13G18   29.89F
RENSSELAER +   PTSUNNY   43  36  75 S17G26    29.88F
VALPARAISO     CLOUDY    40  31  70 SW20G26   29.84F

$$

LMZ046-743>745-292300-
SOUTHERN LAKE MICHIGAN

STATION/POSITION TIME  TEMP WIND        PRES
                       AIR  DIR/SP/G
                 (UTC) (F)  (DEG/KT/KT) (MB)
BURNS HARBOR     2200   42  210/ 20     1010.5R
MICHIGAN CITY    2200   40  170/ 21/ 27   N/A

$$

INZ004-005-014>016-021>024-292300-
NORTH CENTRAL INDIANA

CITY           SKY/WX    TMP DP  RH WIND       PRES   REMARKS
ELKHART        LGT RAIN  39  21  48 SW12G21   29.86S
GOSHEN         CLOUDY    38  27  64 S15       29.87R
LOGANSPORT +   CLOUDY    41  28  60 SW15      29.91S
PERU/GRISSOM   LGT RAIN  42  28  58 SW12      29.89R
ROCHESTER +    CLOUDY    43  28  56 SW14G20   29.89F
SOUTH BEND     CLOUDY    40  26  57 SW17      29.85F
WARSAW +       LGT RAIN  37  28  70 SW7       29.88R

$$

INZ006>009-017-018-025>027-292300-
NORTHEAST INDIANA

CITY           SKY/WX    TMP DP  RH WIND       PRES   REMARKS
ANGOLA *+      CLOUDY    37  25  60 SW15      29.86S
AUBURN +       CLOUDY    41  23  48 S12G20    29.87F
FORT WAYNE     LGT RAIN  41  25  53 S14       29.89F
HUNTINGTON +   CLOUDY    42  16  34 SW12G20   29.89R

$$

INZ028-029-035-036-043>045-051>053-292300-
WEST CENTRAL INDIANA

CITY           SKY/WX    TMP DP  RH WIND       PRES   REMARKS
CRAWFORDSVL +  LGT SNOW  40  29  63 MISG      29.92F
GREENCASTLE +  CLOUDY    45  25  45 SW8G16    29.98R HAZE
LAFAYETTE      CLOUDY    42  32  67 SW8       29.92R
TERRE HAUTE    LGT RAIN  48  32  53 SW9       29.98R

$$

INZ030>032-037>040-046>048-054>057-064-065-292300-
CENTRAL INDIANA

CITY           SKY/WX    TMP DP  RH WIND       PRES   REMARKS
CP ATTERBURY + CLOUDY    52  19  28 SW15G23   29.95F
COLUMBUS       PTSUNNY   52  10  19 S14       29.95F
FISHERS *+     CLOUDY    46  27  46 SW12      29.95
FRANKFORT +    LGT RAIN  39  33  79 S8        29.93F
GREENWOOD *+   CLOUDY    50  18  27 SW7       29.95F
INDIANAPOLIS   LGT RAIN  49  23  36 SW13      29.94S
-EAGLE CREEK   LGT RAIN  49  19  30 VRB6      29.95R
KOKOMO *+        N/A     43  28  56 SW16      29.92R
MARION +       LGT RAIN  41  26  55 S21G26    29.91S
MT COMFORT *+  CLOUDY    48   7  18 S10       29.93F
SHELBYVILLE    CLOUDY    51  23  33 S14       29.93R
ZIONSVILLE +   DRIZZLE   46  20  35 S13G18    29.91F

$$

INZ033-034-041-042-049-050-058-059-292300-
EAST CENTRAL INDIANA

CITY           SKY/WX    TMP DP  RH WIND       PRES   REMARKS
MUNCIE         CLOUDY    45  19  35 S16G28    29.91F

$$

INZ060-061-067>069-081>083-085>088-292300-
SOUTHWEST INDIANA

CITY           SKY/WX    TMP DP  RH WIND       PRES   REMARKS
EVANSVILLE     MOSUNNY   61  36  39 SW20G25   29.97F
HUNTINGBURG *+ MOSUNNY   57  28  33 S22G28    29.97F
WASHINGTON +   PTSUNNY   55  24  30 S14       29.96R

$$

INZ062-063-066-070>080-084-089>092-292300-
SOUTH CENTRAL AND SOUTHEAST INDIANA

CITY           SKY/WX    TMP DP  RH WIND       PRES   REMARKS
BEDFORD +      CLOUDY    54  16  22 S9        29.95S
BLOOMINGTON    LGT RAIN  50  26  39 SW13      29.96R
NORTH VERNON + CLOUDY    52  14  22 S13G25    29.97F
SEYMOUR +      CLOUDY    57  27  30 S14       29.96F

$$



USA.gov is the U.S. government's official web portal to all federal, state and local government web resources and services.